Location: ???? ?????????
(44.3677°N, 135.2344°E)
Time: 15:53:33
(UTC+00:00)

BlueWalker 3 - Visible Passes

Search period start: 17 July 2025 00:00
Search period end: 27 July 2025 00:00
Orbit: 461 x 469 km, 53.2° (Epoch: 17 July)

Date Brightness Start Highest point End Pass type
(mag) Time Alt. Az. Time Alt. Az. Time Alt. Az.
17 Jul 4.3 11:29:39 10° NW 11:32:29 21° N 11:35:19 10° NE visible
17 Jul 3.8 13:07:54 10° NW 13:11:03 26° NNE 13:13:43 13° ENE visible
17 Jul 3.2 14:45:26 10° WNW 14:47:35 33° WNW 14:47:35 33° WNW visible
18 Jul 3.9 12:35:19 10° NW 12:38:24 24° NNE 12:41:28 10° ENE visible
18 Jul 2.5 14:12:50 10° NW 14:15:41 50° NW 14:15:41 50° NW visible
19 Jul 4.0 12:02:43 10° NW 12:05:43 23° NNE 12:08:42 10° ENE visible
19 Jul 2.0 13:40:16 10° NW 13:43:50 66° NNE 13:43:50 66° NNE visible
20 Jul 4.0 11:30:05 10° NW 11:33:02 22° N 11:35:57 10° ENE visible
20 Jul 2.3 13:07:40 10° NW 13:11:17 56° NNE 13:12:03 45° ENE visible
20 Jul 4.6 14:45:48 10° W 14:45:56 11° W 14:45:56 11° W visible
21 Jul 2.5 12:35:05 10° NW 12:38:40 48° NNE 12:40:18 27° E visible
21 Jul 4.1 14:13:02 10° WNW 14:14:12 17° W 14:14:12 17° W visible
22 Jul 2.8 12:02:30 10° NW 12:06:01 41° NNE 12:08:37 16° E visible
22 Jul 3.3 13:40:18 10° WNW 13:42:30 27° W 13:42:30 27° W visible
23 Jul 3.0 11:29:54 10° NW 11:33:21 36° NNE 11:36:46 10° E visible
23 Jul 2.4 13:07:35 10° WNW 13:10:50 42° SW 13:10:50 42° SW visible
24 Jul 2.1 12:34:54 10° WNW 12:38:30 53° SW 12:39:14 44° S visible
25 Jul 1.9 12:02:14 10° WNW 12:05:52 65° SW 12:07:39 28° SE visible
26 Jul 1.8 11:29:35 10° WNW 11:33:15 80° SW 11:36:08 16° SE visible
26 Jul 4.4 13:09:06 10° WSW 13:10:02 11° WSW 13:10:02 11° WSW visible
